Кырта

Россия / Республика Коми     64°03′02″N   57°41′14″E
темп.,
°C
ветер,
м/с
пор.,
м/с
влажн.,
%
обл.,
%
осадки,
мм/ч
давл.,
гПа
погр.,
м
21 июня, пн
пн2100:00+4вюв117978 0.0 102310
03:00+5ююз117388 0.0 102450
06:00+9ю1155100 0.0 1023441
09:00+12юз2247100 0.0 10211111
12:00+11юз3360100 0.0 1021774
15:00+9ююз3570100 0.0 1021379
18:00+11ююз2369100 0.0 1019556
21:00+9ююз1180100 0.0 101914
22 июня, вт
вт2200:00+9всв1179100 0.0 101920
03:00+9св127697 0.0 1019105
06:00+13ссв235853 0.0 1019509
09:00+18с2342100 0.0 10191306
12:00+19ссз3439100 0.0 10191825
15:00+19зсз343927 0.1 10191802
18:00+18сз234225 0.0 10191000
21:00+12ююв1170100 0.0 102010
23 июня, ср
ср2300:00+10юв210765 0.0 1021209
03:00+10юв267011 0.0 1021135
06:00+16ююв234712 0.0 1021552
09:00+20юз334041 0.0 10201264
12:00+20зюз434395 0.0 1019883
15:00+20зюз2343100 0.0 1018737
18:00+20ю11496 0.0 1017364
21:00+15юв11690 0.0 101611
24 июня, чт
чт2400:00+14юв117740 0.0 101611
03:00+15ююв237653 0.0 101569
06:00+21ю2457100 0.0 1013365
09:00+26ююз3447100 0.0 1012873
12:00+24юз2460100 0.4 1011428
15:00+22в3582100 7.3 1009179
18:00+21вюв258952 3.8 1009177
21:00+19ююз2396100 5.3 100969
25 июня, пт
пт2500:00+18ю389833 2.4 1008261
03:00+17ю2599100 4.9 1007242
06:00+19ююз129698 1.6 1007285
09:00+21ссз128781 1.8 1007503
12:00+20ссз4786100 2.0 1007731
15:00+12ссз51095100 3.1 1009635
18:00+11ссз51189100 0.1 1011795
21:00+10с412834 0.1 1012847